ARIANE 1 DEB, 28557

Orbit data source: Space-Track

ARIANE 1 DEB, 28557 is space debris in HEO originally from a launch on Mon, 24 Dec 1979 UTC launched from the French Guiana (FRGUI). Debris objects in space refer to the collection of defunct objects orbiting the Earth. Examples of debris include non-operational satellites, rocket bodies, and fragments generated from explosions, collisions, or faulty payload assembly.

Loading next visibility...
Identifier
28557, 1979-104W
Orbit
HEO
Country
Flag of FRFR
Related business
Manufacturer
Unknown
Mission
Spacecraft
Bus & Motor
Unknown
Mass
Unknown
Launch date (UTC)
1979-12-24 (46 years ago)
Launch vehicle
Unknown
Launch site
French Guiana (FRGUI)
Object type
Payload
Rocket body
Debris
Shape & HBR
Unknown shape, 0.1 m
Radar Cross Section
Medium (>0.1 m² and <1 m²)

Expand to show TLE details & history
Last TLE update: 1 week ago

TLE from 1 week ago
0 ARIANE 1 DEB
1 28557U 79104W   26054.36139245 -.00000067  00000-0 -17631-2 0  9993
2 28557  19.8192  34.9291 7391848 172.1488 357.5463  1.97528543 29411
Epoch: 2026-02-23T08:40Z
TLE epoch observation values (Epoch: 2026-02-23T08:40:24.307Z)
Latitude
9.75852°
Longitude
-96.78455°
Altitude
845.519 km
Speed
9.773 km/s
True Right ascension
12h 26m 17s
True Declination
9° 42' 07"
Sunlit
Object was in full shadow at epoch
Visualization orbit readout
Latitude
Unknown
Longitude
Unknown
Altitude
Unknown
Speed
Unknown
Apparent Right ascension
Unknown
Apparent Declination
Unknown
Sunlit
N/A
Visualization observer readout
Local Sidereal Time
22:44:54
Azimuth
Unknown
Elevation
Unknown
Doppler factor
Unknown
Orbital elements
Apogee altitude
40,294.955 km
Perigee altitude
621.149 km
Semi-major axis
26,836.189 km
Eccentricity
0.73918
Inclination
19.8192°
RAAN
34.9291°
Arg. of periapsis
172.1488°
True anomaly
336.29526°
Mean anomaly
357.5463°
Eccentric anomaly
350.7075°
Mean motion
0.4937 °/min
Orbital period
729.19 mins
BSTAR
-0.0017631
Loading maneuver chart data...
Computing Atmospheric mass density...
Loading historical data...
Loading historical data...
Loading historical data...
Loading historical data...
Loading historical data...
Loading historical data...
Loading historical data...

Documentation

Showing up to 5 results
|